FW6209 Weather Reports


Display with metric or nautical units.
time (UTC)temp
F
wind
direction
speed
MPH
gust
MPH
rain 1hr
in
rain 24hr
in
rain mn
in
humidity
%
barometer
mb
20260906051902 77 87 0.0 0.0 0.00 0.00 0.00 23 1012.5
20260906051615 77 87 0.0 0.0 0.00 0.00 0.00 25 1012.6
20260906051336 77 87 0.0 0.0 0.00 0.00 0.00 26 1012.6
20260906050344 77 87 0.0 0.0 0.00 0.00 0.00 27 1012.7
20260906045838 77 87 0.0 0.0 0.00 0.00 0.00 27 1012.7
20260906045332 77 83 0.0 0.0 0.00 0.00 0.00 25 1012.8
20260906045046 77 83 0.0 0.0 0.00 0.00 0.00 24 1012.8
20260906044320 77 83 0.0 0.0 0.00 0.00 0.00 23 1012.8
20260906043814 76 83 0.0 0.0 0.00 0.00 0.00 23 1012.8
20260906043308 76 83 0.0 0.0 0.00 0.00 0.00 24 1012.8
20260906042803 76 83 0.0 0.0 0.00 0.00 0.00 24 1012.8
20260906042519 76 83 0.0 0.0 0.00 0.00 0.00 24 1012.8
20260906041750 76 83 0.0 0.0 0.00 0.00 0.00 30 1012.8
20260906041244 76 83 0.0 0.0 0.00 0.00 0.00 27 1012.7
20260906040738 76 83 0.0 0.0 0.00 0.00 0.00 31 1012.6
20260906040232 77 83 0.0 0.0 0.00 0.00 0.00 33 1012.5
20260906035726 77 59 0.0 0.0 0.00 0.00 0.00 25 1012.6
20260906035220 76 278 0.0 0.0 0.00 0.00 0.00 25 1012.6
20260906034932 76 278 0.0 0.0 0.00 0.00 0.00 31 1012.6
20260906034208 76 278 0.0 0.0 0.00 0.00 0.00 35 1012.6
20260906033703 77 278 0.0 0.0 0.00 0.00 0.00 34 1012.5
20260906033156 77 278 0.0 0.0 0.00 0.00 0.00 30 1012.5
20260906032653 77 278 0.0 0.0 0.00 0.00 0.00 31 1012.6
20260906032149 77 276 0.0 0.0 0.00 0.00 0.00 30 1012.6
20260906031650 77 299 0.0 0.0 0.00 0.00 0.00 31 1012.6
20260906031147 77 303 0.0 0.0 0.00 0.00 0.00 34 1012.5
20260906030645 77 303 0.0 0.0 0.00 0.00 0.00 34 1012.6
20260906030146 77 303 0.0 0.0 0.00 0.00 0.00 36 1012.6
20260906025647 78 323 0.0 0.0 0.00 0.00 0.00 36 1012.5
20260906025143 78 271 0.0 0.0 0.00 0.00 0.00 37 1012.5
20260906024643 79 313 0.0 0.0 0.00 0.00 0.00 35 1012.4
20260906024145 79 273 0.0 0.0 0.00 0.00 0.00 34 1012.4
20260906023648 80 264 0.0 0.0 0.00 0.00 0.00 30 1012.3
20260906023145 80 264 0.0 0.0 0.00 0.00 0.00 30 1012.3
20260906022643 80 264 0.0 0.0 0.00 0.00 0.00 29 1012.3
20260906022141 80 264 0.0 0.0 0.00 0.00 0.00 29 1012.3
20260906021642 81 284 0.0 0.0 0.00 0.00 0.00 27 1012.3
20260906021401 81 219 0.0 0.0 0.00 0.00 0.00 28 1012.2
20260906020643 82 315 0.0 0.0 0.00 0.00 0.00 29 1012.3
20260906020137 82 274 0.0 1.0 0.00 0.00 0.00 31 1012.2
20260906015629 82 271 0.0 1.0 0.00 0.00 0.00 32 1012.1
20260906015128 83 217 0.0 2.0 0.00 0.00 0.00 33 1012.1
20260906014629 83 238 0.0 2.0 0.00 0.00 0.00 33 1012.2
20260906014129 84 222 0.0 5.0 0.00 0.00 0.00 34 1012.3
20260906013625 84 278 0.0 5.0 0.00 0.00 0.00 35 1012.2
20260906013127 85 232 0.0 5.0 0.00 0.00 0.00 36 1012.2
20260906012627 85 232 0.0 5.0 0.00 0.00 0.00 35 1012.2
20260906012126 86 241 0.0 5.0 0.00 0.00 0.00 36 1012.2
20260906011626 86 217 0.0 6.0 0.00 0.00 0.00 36 1012.3
20260906011127 86 253 1.0 6.0 0.00 0.00 0.00 36 1012.2
20260906010621 87 221 1.0 6.0 0.00 0.00 0.00 36 1012.0
20260906010104 87 202 1.0 6.0 0.00 0.00 0.00 35 1012.2
20260906005604 87 193 0.0 4.0 0.00 0.00 0.00 36 1012.2
20260906005104 87 246 0.0 4.0 0.00 0.00 0.00 37 1012.0
20260906004601 87 239 0.0 4.0 0.00 0.00 0.00 37 1012.1
20260906004103 87 249 0.0 4.0 0.00 0.00 0.00 37 1012.1
20260906003821 87 240 0.0 4.0 0.00 0.00 0.00 35 1012.1
20260906003059 87 221 1.0 7.0 0.00 0.00 0.00 37 1012.1
20260906002559 87 211 1.0 7.0 0.00 0.00 0.00 39 1012.0
20260906002059 87 244 1.0 8.0 0.00 0.00 0.00 38 1012.1
20260906001828 87 238 2.0 9.0 0.00 0.00 0.00 38 1012.1
20260906001320 88 211 2.0 9.0 0.00 0.00 0.00 36 1012.1
20260906000558 88 242 4.0 10.0 0.00 0.00 0.00 35 1012.2
20260906000055 88 215 4.0 10.0 0.00 0.00 0.00 35 1012.1
20260905235556 88 229 2.0 9.0 0.00 0.00 0.00 32 1012.1
20260905235056 89 238 2.0 8.0 0.00 0.00 0.00 32 1012.1
20260905234557 89 189 2.0 9.0 0.00 0.00 0.00 36 1012.0
20260905234058 89 232 2.0 9.0 0.00 0.00 0.00 35 1012.0
20260905233558 89 223 1.0 7.0 0.00 0.00 0.00 34 1012.0
20260905233057 89 266 1.0 10.0 0.00 0.00 0.00 36 1012.1
20260905232552 89 209 3.0 10.0 0.00 0.00 0.00 37 1012.0
20260905232053 89 213 3.0 10.0 0.00 0.00 0.00 37 1012.0
20260905231553 89 234 3.0 10.0 0.00 0.00 0.00 36 1011.9
20260905231053 90 242 2.0 8.0 0.00 0.00 0.00 35 1012.0
20260905230551 90 229 2.0 10.0 0.00 0.00 0.00 36 1012.0
20260905230052 89 221 3.0 10.0 0.00 0.00 0.00 36 1012.1
20260905225552 89 217 3.0 10.0 0.00 0.00 0.00 34 1012.2
20260905225051 89 230 4.0 10.0 0.00 0.00 0.00 35 1012.2
20260905224553 89 264 4.0 10.0 0.00 0.00 0.00 35 1012.3
20260905224049 90 219 3.0 11.0 0.00 0.00 0.00 36 1012.3
20260905223814 90 215 3.0 11.0 0.00 0.00 0.00 36 1012.3
20260905223050 89 319 4.0 11.0 0.00 0.00 0.00 37 1012.3
20260905222549 90 206 4.0 11.0 0.00 0.00 0.00 37 1012.3
20260905222048 90 226 5.0 11.0 0.00 0.00 0.00 36 1012.5
20260905221547 90 257 4.0 11.0 0.00 0.00 0.00 34 1012.4
20260905221048 90 238 4.0 10.0 0.00 0.00 0.00 33 1012.5
20260905220549 91 229 4.0 10.0 0.00 0.00 0.00 34 1012.5
20260905220049 91 213 1.0 9.0 0.00 0.00 0.00 31 1012.5
20260905215544 91 203 1.0 8.0 0.00 0.00 0.00 31 1012.5
20260905215044 91 140 1.0 8.0 0.00 0.00 0.00 32 1012.6
20260905214809 91 211 1.0 8.0 0.00 0.00 0.00 33 1012.6
20260905214044 91 286 1.0 8.0 0.00 0.00 0.00 33 1012.7
20260905213543 91 257 1.0 8.0 0.00 0.00 0.00 32 1012.7
20260905213045 90 220 1.0 9.0 0.00 0.00 0.00 33 1012.7
20260905212545 90 204 2.0 9.0 0.00 0.00 0.00 33 1012.7
20260905212045 90 193 2.0 10.0 0.00 0.00 0.00 34 1012.8
20260905211545 90 235 2.0 10.0 0.00 0.00 0.00 33 1012.9
20260905211233 90 214 0.0 5.0 0.00 0.00 0.00 29 1013.0
20260905211124 90 230 1.0 8.0 0.00 0.00 0.00 30 1013.0
20260905210039 90 213 0.0 6.0 0.00 0.00 0.00 28 1012.9
20260905205541 90 251 0.0 6.0 0.00 0.00 0.00 31 1013.1
20260905205040 89 121 0.0 6.0 0.00 0.00 0.00 29 1013.1
20260905204540 89 333 0.0 6.0 0.00 0.00 0.00 32 1013.2
20260905204039 89 162 0.0 3.0 0.00 0.00 0.00 28 1013.1
20260905203540 89 180 0.0 3.0 0.00 0.00 0.00 27 1013.2
20260905203041 89 211 0.0 3.0 0.00 0.00 0.00 25 1013.1
20260905202536 89 121 0.0 3.0 0.00 0.00 0.00 22 1013.2
20260905202038 89 216 0.0 3.0 0.00 0.00 0.00 22 1013.2
20260905201535 89 277 0.0 3.0 0.00 0.00 0.00 20 1013.4
20260905201037 89 109 0.0 3.0 0.00 0.00 0.00 17 1013.6
20260905200536 88 209 0.0 3.0 0.00 0.00 0.00 18 1013.7
20260905200036 88 355 0.0 2.0 0.00 0.00 0.00 16 1013.7
20260905195535 88 229 0.0 2.0 0.00 0.00 0.00 17 1013.7
20260905195259 87 212 0.0 2.0 0.00 0.00 0.00 16 1013.8
20260905194537 87 113 0.0 6.0 0.00 0.00 0.00 17 1013.9
20260905194033 86 221 0.0 6.0 0.00 0.00 0.00 16 1013.9
20260905193749 86 215 0.0 7.0 0.00 0.00 0.00 16 1014.0
20260905193033 86 221 0.0 7.0 0.00 0.00 0.00 16 1014.1
20260905192532 86 163 0.0 4.0 0.00 0.00 0.00 16 1014.0
20260905192032 86 133 0.0 4.0 0.00 0.00 0.00 16 1014.1
20260905191757 86 175 0.0 3.0 0.00 0.00 0.00 16 1014.1
20260905191036 85 101 0.0 3.0 0.00 0.00 0.00 16 1014.1
20260905190534 85 152 0.0 3.0 0.00 0.00 0.00 16 1014.0
20260905190039 85 180 0.0 6.0 0.00 0.00 0.00 15 1014.1
20260905185532 85 202 1.0 6.0 0.00 0.00 0.00 15 1014.1
20260905185030 85 188 1.0 6.0 0.00 0.00 0.00 16 1014.1
20260905184530 85 242 1.0 6.0 0.00 0.00 0.00 16 1014.1
20260905184251 85 178 0.0 5.0 0.00 0.00 0.00 16 1014.2
20260905183529 85 227 1.0 5.0 0.00 0.00 0.00 16 1014.2
20260905183028 85 242 1.0 5.0 0.00 0.00 0.00 15 1014.3
20260905182750 84 250 0.0 4.0 0.00 0.00 0.00 15 1014.3
20260905182028 84 121 0.0 7.0 0.00 0.00 0.00 15 1014.3
20260905181529 84 148 1.0 7.0 0.00 0.00 0.00 15 1014.4
20260905181024 84 88 1.0 8.0 0.00 0.00 0.00 15 1014.4
20260905180524 83 179 1.0 8.0 0.00 0.00 0.00 15 1014.4
20260905180025 83 117 1.0 8.0 0.00 0.00 0.00 14 1014.3
20260905175746 83 152 1.0 8.0 0.00 0.00 0.00 14 1014.3
20260905175023 83 159 0.0 6.0 0.00 0.00 0.00 13 1014.3
20260905174523 83 198 0.0 6.0 0.00 0.00 0.00 15 1014.2
20260905174025 82 160 0.0 0.0 0.00 0.00 0.00 16 1014.2
20260905173524 82 166 0.0 0.0 0.00 0.00 0.00 16 1014.1
20260905173025 82 113 0.0 0.0 0.00 0.00 0.00 17 1014.1
20260905172748 82 135 0.0 0.0 0.00 0.00 0.00 16 1014.0
20260905172020 82 132 0.0 0.0 0.00 0.00 0.00 17 1014.0
20260905171521 82 161 0.0 0.0 0.00 0.00 0.00 16 1014.0
20260905171019 82 146 0.0 0.0 0.00 0.00 0.00 17 1014.0
20260905170521 81 96 0.0 0.0 0.00 0.00 0.00 19 1013.9
20260905170238 81 184 0.0 0.0 0.00 0.00 0.00 20 1013.9
20260905165519 81 175 0.0 0.0 0.00 0.00 0.00 21 1013.9
20260905165020 80 192 0.0 0.0 0.00 0.00 0.00 23 1013.9
20260905164521 80 126 0.0 0.0 0.00 0.00 0.00 24 1013.8
20260905164235 80 111 0.0 0.0 0.00 0.00 0.00 24 1013.9
20260905163516 80 163 0.0 0.0 0.00 0.00 0.00 25 1013.9
20260905163017 79 73 0.0 0.0 0.00 0.00 0.00 25 1013.8
20260905162515 79 130 0.0 0.0 0.00 0.00 0.00 26 1013.8
20260905162015 80 185 0.0 0.0 0.00 0.00 0.00 26 1013.8
20260905161516 80 205 0.0 0.0 0.00 0.00 0.00 25 1013.7
20260905161016 81 115 0.0 0.0 0.00 0.00 0.00 24 1013.7
20260905160518 81 120 0.0 0.0 0.00 0.00 0.00 25 1013.7
20260905160017 81 224 0.0 0.0 0.00 0.00 0.00 26 1013.7
20260905155744 80 146 0.0 0.0 0.00 0.00 0.00 26 1013.7
20260905155013 79 132 0.0 0.0 0.00 0.00 0.00 28 1013.7
20260905154512 78 165 0.0 0.0 0.00 0.00 0.00 30 1013.7
20260905154012 78 177 0.0 0.0 0.00 0.00 0.00 29 1013.7
20260905153512 78 167 0.0 0.0 0.00 0.00 0.00 29 1013.4
20260905153012 78 161 0.0 0.0 0.00 0.00 0.00 28 1013.6
20260905152734 78 177 0.0 0.0 0.00 0.00 0.00 31 1013.6
20260905152011 78 175 0.0 0.0 0.00 0.00 0.00 31 1013.4
20260905151513 78 177 0.0 0.0 0.00 0.00 0.00 31 1013.3
20260905151011 77 171 0.0 0.0 0.00 0.00 0.00 31 1013.3
20260905150511 76 182 0.0 0.0 0.00 0.00 0.00 32 1013.3
20260905150012 76 155 0.0 0.0 0.00 0.00 0.00 31 1013.3
20260905145516 75 85 0.0 0.0 0.00 0.00 0.00 36 1013.2
20260905145011 74 85 0.0 0.0 0.00 0.00 0.00 37 1013.2
20260905144511 73 85 0.0 0.0 0.00 0.00 0.00 39 1013.2
20260905144012 72 85 0.0 0.0 0.00 0.00 0.00 40 1013.2
20260905143511 72 85 0.0 0.0 0.00 0.00 0.00 40 1013.1
20260905143011 71 85 0.0 0.0 0.00 0.00 0.00 40 1013.0
20260905142734 71 85 0.0 0.0 0.00 0.00 0.00 43 1013.0
20260905141958 70 85 0.0 0.0 0.00 0.00 0.00 46 1012.9
20260905141452 70 85 0.0 0.0 0.00 0.00 0.00 46 1012.9
20260905140946 69 85 0.0 0.0 0.00 0.00 0.00 47 1012.8
20260905140440 68 85 0.0 0.0 0.00 0.00 0.00 49 1012.8
20260905135934 67 85 0.0 0.0 0.00 0.00 0.00 50 1012.6
20260905135428 66 85 0.0 0.0 0.00 0.00 0.00 51 1012.6
20260905134922 66 85 0.0 0.0 0.00 0.00 0.00 52 1012.6
20260905134416 66 85 0.0 0.0 0.00 0.00 0.00 51 1012.6
20260905134138 66 48 0.0 0.0 0.00 0.00 0.00 51 1012.6
20260905133404 66 47 0.0 0.0 0.00 0.00 0.00 51 1012.5
20260905132858 66 0 0.0 0.0 0.00 0.00 0.00 52 1012.3
20260905132352 66 0 0.0 0.0 0.00 0.00 0.00 51 1012.2
20260905131847 66 0 0.0 0.0 0.00 0.00 0.00 52 1012.3
20260905131340 66 0 0.0 0.0 0.00 0.00 0.00 52 1012.4
20260905130835 66 307 0.0 0.0 0.00 0.00 0.00 53 1012.4
20260905130328 65 307 0.0 0.0 0.00 0.00 0.00 56 1012.3
20260905125822 65 307 0.0 0.0 0.00 0.00 0.00 61 1012.4
20260905125317 65 302 0.0 0.0 0.00 0.00 0.00 61 1012.4
20260905124811 65 298 0.0 0.0 0.00 0.00 0.00 62 1012.4
20260905124304 65 284 0.0 0.0 0.00 0.00 0.00 63 1012.5
20260905123759 65 284 0.0 0.0 0.00 0.00 0.00 62 1012.5
20260905123253 64 284 0.0 0.0 0.00 0.00 0.00 62 1012.4
20260905122746 64 243 0.0 0.0 0.00 0.00 0.00 63 1012.5
20260905122503 64 243 0.0 0.0 0.00 0.00 0.00 62 1012.4
20260905121734 64 243 0.0 0.0 0.00 0.00 0.00 61 1012.5
20260905121229 64 243 0.0 0.0 0.00 0.00 0.00 60 1012.4
20260905120946 65 243 0.0 0.0 0.00 0.00 0.00 58 1012.4
20260905120219 65 243 0.0 0.0 0.00 0.00 0.00 57 1012.3
20260905115710 65 243 0.0 0.0 0.00 0.00 0.00 56 1012.2
20260905115204 65 243 0.0 0.0 0.00 0.00 0.00 56 1012.3
20260905114919 65 243 0.0 0.0 0.00 0.00 0.00 56 1012.3
20260905114152 65 243 0.0 0.0 0.00 0.00 0.00 57 1012.3
20260905113647 65 243 0.0 0.0 0.00 0.00 0.00 58 1012.4
20260905113140 65 243 0.0 0.0 0.00 0.00 0.00 58 1012.4
20260905112634 65 243 0.0 0.0 0.00 0.00 0.00 58 1012.4
20260905112128 65 243 0.0 0.0 0.00 0.00 0.00 61 1012.4
20260905111622 65 243 0.0 0.0 0.00 0.00 0.00 63 1012.4
20260905111116 64 243 0.0 0.0 0.00 0.00 0.00 63 1012.5
20260905110610 64 243 0.0 0.0 0.00 0.00 0.00 64 1012.5
20260905110104 64 243 0.0 0.0 0.00 0.00 0.00 66 1012.5
20260905105558 64 243 0.0 0.0 0.00 0.00 0.00 70 1012.5
20260905105052 63 243 0.0 0.0 0.00 0.00 0.00 70 1012.5
20260905104817 63 243 0.0 0.0 0.00 0.00 0.00 72 1012.4
20260905104040 63 243 0.0 0.0 0.00 0.00 0.00 78 1012.5
20260905103802 63 243 0.0 0.0 0.00 0.00 0.00 78 1012.6
20260905103254 63 243 0.0 0.0 0.00 0.00 0.00 79 1012.5
20260905102522 63 243 0.0 0.0 0.00 0.00 0.00 78 1012.5
20260905102016 63 180 0.0 0.0 0.00 0.00 0.00 78 1012.6
20260905101510 63 180 0.0 0.0 0.00 0.00 0.00 73 1012.5
20260905101005 63 180 0.0 0.0 0.00 0.00 0.00 73 1012.5
20260905100724 64 180 0.0 0.0 0.00 0.00 0.00 71 1012.5
20260905095952 64 180 0.0 0.0 0.00 0.00 0.00 69 1012.5
20260905095446 64 180 0.0 0.0 0.00 0.00 0.00 67 1012.5
20260905094940 64 180 0.0 0.0 0.00 0.00 0.00 67 1012.3
20260905094434 64 180 0.0 0.0 0.00 0.00 0.00 67 1012.4
20260905094157 64 180 0.0 0.0 0.00 0.00 0.00 67 1012.4
20260905093423 64 180 0.0 0.0 0.00 0.00 0.00 69 1012.4
20260905092916 65 180 0.0 0.0 0.00 0.00 0.00 69 1012.4
20260905092410 65 180 0.0 0.0 0.00 0.00 0.00 69 1012.5
20260905091905 65 180 0.0 0.0 0.00 0.00 0.00 69 1012.5
20260905091358 65 180 0.0 0.0 0.00 0.00 0.00 66 1012.5
20260905090852 65 180 0.0 0.0 0.00 0.00 0.00 66 1012.5
20260905090346 65 180 0.0 0.0 0.00 0.00 0.00 66 1012.5
20260905085840 65 180 0.0 0.0 0.00 0.00 0.00 67 1012.7
20260905085334 65 180 0.0 0.0 0.00 0.00 0.00 68 1012.7
20260905084828 64 180 0.0 0.0 0.00 0.00 0.00 69 1012.7
20260905084324 64 180 0.0 0.0 0.00 0.00 0.00 70 1012.8
20260905083817 64 180 0.0 0.0 0.00 0.00 0.00 73 1012.9
20260905083310 64 180 0.0 0.0 0.00 0.00 0.00 73 1012.9
20260905082804 63 180 0.0 0.0 0.00 0.00 0.00 74 1012.9
20260905082258 63 180 0.0 0.0 0.00 0.00 0.00 77 1012.9
20260905081752 63 180 0.0 0.0 0.00 0.00 0.00 79 1013.0
20260905081246 62 180 0.0 0.0 0.00 0.00 0.00 80 1013.1
20260905080741 62 172 0.0 0.0 0.00 0.00 0.00 83 1013.2
20260905080234 62 172 0.0 0.0 0.00 0.00 0.00 84 1013.2
20260905075728 62 173 0.0 0.0 0.00 0.00 0.00 84 1013.2
20260905075222 62 117 0.0 0.0 0.00 0.00 0.00 82 1013.3
20260905074716 62 176 0.0 0.0 0.00 0.00 0.00 83 1013.2
20260905074210 63 176 0.0 0.0 0.00 0.00 0.00 83 1013.3
20260905073704 63 176 0.0 0.0 0.00 0.00 0.00 83 1013.3
20260905073158 63 176 0.0 0.0 0.00 0.00 0.00 84 1013.3
20260905072652 63 180 0.0 0.0 0.00 0.00 0.00 84 1013.3
20260905072146 63 182 0.0 0.0 0.00 0.00 0.00 84 1013.3
20260905071639 63 173 0.0 0.0 0.00 0.00 0.00 84 1013.2
20260905071132 63 171 0.0 0.0 0.00 0.00 0.00 84 1013.1
20260905070626 62 180 0.0 0.0 0.00 0.00 0.00 85 1013.1
20260905070120 62 182 0.0 0.0 0.00 0.00 0.00 84 1013.2
20260905065613 62 194 0.0 0.0 0.00 0.00 0.00 84 1013.2
20260905065107 62 209 0.0 0.0 0.00 0.00 0.00 84 1013.2
20260905064602 62 189 0.0 0.0 0.00 0.00 0.00 84 1013.2
20260905064055 62 174 0.0 0.0 0.00 0.00 0.00 84 1013.2
20260905063809 62 178 0.0 0.0 0.00 0.00 0.00 84 1013.2
20260905063043 62 184 0.0 0.0 0.00 0.00 0.00 84 1013.1
20260905062537 62 0 0.0 0.0 0.00 0.00 0.00 83 1013.1
20260905062031 62 0 0.0 0.0 0.00 0.00 0.00 83 1013.1
20260905061525 62 0 0.0 0.0 0.00 0.00 0.00 83 1013.0
20260905061019 62 0 0.0 0.0 0.00 0.00 0.00 83 1013.0
20260905060513 63 335 0.0 0.0 0.00 0.00 0.00 81 1013.0
20260905060235 63 335 0.0 0.0 0.00 0.00 0.00 81 1012.9
20260905055502 63 215 0.0 0.0 0.00 0.00 0.00 79 1012.9
20260905054955 63 215 0.0 0.0 0.00 0.00 0.00 78 1012.8
20260905054449 63 215 0.0 0.0 0.00 0.00 0.00 77 1012.8
20260905053943 63 215 0.0 0.0 0.00 0.00 0.00 76 1012.8
20260905053438 64 215 0.0 0.0 0.00 0.00 0.00 76 1012.8
20260905052932 64 215 0.0 0.0 0.00 0.00 0.00 76 1012.9
20260905052654 64 215 0.0 0.0 0.00 0.00 0.00 76 1012.9